TimeEEST,TemperatureF,Dew PointF,Humidity,Sea Level PressureIn,VisibilityMPH,Wind Direction,Wind SpeedMPH,Gust SpeedMPH,PrecipitationIn,Events,Conditions,WindDirDegrees,DateUTC
12:50 AM,71.6,53.6,53,29.92,-9999.0,North,4.6,-,N/A,,Clear,350,2013-05-19 21:50:00
1:50 AM,69.8,53.6,56,29.92,-9999.0,Calm,Calm,-,N/A,,Clear,0,2013-05-19 22:50:00
2:50 AM,69.8,53.6,56,29.92,-9999.0,Calm,Calm,-,N/A,,Clear,0,2013-05-19 23:50:00
3:50 AM,69.8,53.6,56,29.92,-9999.0,Calm,Calm,-,N/A,,Clear,0,2013-05-20 00:50:00
4:50 AM,68.0,53.6,60,29.92,-9999.0,Calm,Calm,-,N/A,,Clear,0,2013-05-20 01:50:00
5:50 AM,66.2,55.4,68,29.92,-9999.0,Calm,Calm,-,N/A,,Clear,0,2013-05-20 02:50:00
6:20 AM,66.2,55.4,68,29.92,-9999.0,Calm,Calm,-,N/A,,Clear,0,2013-05-20 03:20:00
6:50 AM,66.2,55.4,68,29.92,-9999.0,Calm,Calm,-,N/A,,Clear,0,2013-05-20 03:50:00
7:20 AM,68.0,55.4,64,29.92,-9999.0,Calm,Calm,-,N/A,,Clear,0,2013-05-20 04:20:00
7:50 AM,71.6,55.4,57,29.92,-9999.0,Calm,Calm,-,N/A,,Clear,0,2013-05-20 04:50:00
8:20 AM,75.2,55.4,50,29.92,-9999.0,Calm,Calm,-,N/A,,Clear,0,2013-05-20 05:20:00
8:50 AM,77.0,55.4,47,29.92,-9999.0,Calm,Calm,-,N/A,,Clear,0,2013-05-20 05:50:00
9:20 AM,78.8,55.4,44,29.92,-9999.0,Calm,Calm,-,N/A,,Clear,0,2013-05-20 06:20:00
9:50 AM,80.6,55.4,42,29.92,5.6,Calm,Calm,-,N/A,,Unknown,0,2013-05-20 06:50:00
10:20 AM,82.4,55.4,39,29.92,5.6,Calm,Calm,-,N/A,,Unknown,0,2013-05-20 07:20:00
10:50 AM,84.2,55.4,37,29.92,5.6,Calm,Calm,-,N/A,,Unknown,0,2013-05-20 07:50:00
11:20 AM,86.0,55.4,35,29.92,5.6,Calm,Calm,-,N/A,,Unknown,0,2013-05-20 08:20:00
11:50 AM,87.8,53.6,31,29.92,5.6,Calm,Calm,-,N/A,,Unknown,0,2013-05-20 08:50:00
12:20 PM,89.6,51.8,27,29.92,5.6,Variable,3.5,-,N/A,,Unknown,0,2013-05-20 09:20:00
12:50 PM,89.6,53.6,29,29.89,5.6,SSE,4.6,-,N/A,,Unknown,160,2013-05-20 09:50:00
1:20 PM,91.4,53.6,28,29.89,5.6,South,6.9,-,N/A,,Unknown,180,2013-05-20 10:20:00
1:50 PM,91.4,55.4,29,29.89,5.6,SSW,8.1,-,N/A,,Unknown,200,2013-05-20 10:50:00
2:20 PM,93.2,51.8,24,29.89,5.6,South,8.1,-,N/A,,Partly Cloudy,190,2013-05-20 11:20:00
2:50 PM,93.2,51.8,24,29.89,5.0,SSW,9.2,-,N/A,,Partly Cloudy,200,2013-05-20 11:50:00
3:20 PM,91.4,51.8,26,29.89,5.0,South,10.4,-,N/A,,Partly Cloudy,190,2013-05-20 12:20:00
3:50 PM,91.4,51.8,26,29.86,5.0,SSW,10.4,-,N/A,,Partly Cloudy,210,2013-05-20 12:50:00
4:20 PM,89.6,55.4,31,29.86,5.0,SSW,10.4,-,N/A,,Partly Cloudy,200,2013-05-20 13:20:00
4:50 PM,89.6,55.4,31,29.86,5.0,SSW,10.4,-,N/A,,Unknown,210,2013-05-20 13:50:00
5:20 PM,87.8,53.6,31,29.86,5.0,SSW,10.4,-,N/A,,Unknown,210,2013-05-20 14:20:00
5:50 PM,87.8,53.6,31,29.86,5.6,SSW,9.2,-,N/A,,Unknown,210,2013-05-20 14:50:00
6:20 PM,86.0,59.0,40,29.86,5.6,South,10.4,-,N/A,,Unknown,190,2013-05-20 15:20:00
6:50 PM,84.2,57.2,40,29.86,5.6,South,9.2,-,N/A,,Unknown,170,2013-05-20 15:50:00
7:20 PM,82.4,57.2,42,29.86,5.6,South,9.2,-,N/A,,Unknown,170,2013-05-20 16:20:00
7:50 PM,82.4,59.0,45,29.86,5.6,South,8.1,-,N/A,,Unknown,170,2013-05-20 16:50:00
8:20 PM,82.4,57.2,42,29.86,5.6,SSW,5.8,-,N/A,,Unknown,210,2013-05-20 17:20:00
8:50 PM,80.6,57.2,45,29.89,-9999.0,Variable,3.5,-,N/A,,Clear,0,2013-05-20 17:50:00
10:20 PM,77.0,57.2,50,29.92,-9999.0,NNE,5.8,-,N/A,,Clear,30,2013-05-20 19:20:00
10:50 PM,77.0,55.4,47,29.92,-9999.0,Calm,Calm,-,N/A,,Clear,0,2013-05-20 19:50:00
11:50 PM,73.4,55.4,53,29.92,-9999.0,Calm,Calm,-,N/A,,Clear,0,2013-05-20 20:50:00